Location: Unspecified
(0.0000°N, 0.0000°E)
Time: 06:35:14
(UTC+00:00)

Transit 4A - Pass Details

Date: 21 December 2018
Orbit: 862 x 983 km, 66.8° (Epoch: 16 June)

Event Time Altitude Azimuth Distance (km) Brightness Sun altitude
Rises 01:04:22 0° 215° (SW) 3,492 - -61.5°
Reaches altitude 10° 01:07:03 10° 223° (SW) 2,535 - -61.2°
Maximum altitude 01:12:24 38° 289° (WNW) 1,296 - -60.4°
Drops below altitude 10° 01:17:41 10° 356° (N) 2,489 - -59.6°
Sets 01:20:18 0° 5° (N) 3,422 - -59.2°
